weather.gov     
National Weather Service

Regional Weather Roundup
NWS Homepage
This page is being discontinued on March 12, 2014.
The same data is available at this site. Please update your bookmarks.
Thank you, and we apologize for the inconvenience.
Please send an email to SR-SRH.Webmaster@noaa.gov with any concerns.


Current Version
Previous Version:    01  02  03  04  05  06  07  08  09  10  11  12  13  14  15  16  17  18  19  20  21  22  23  24  25  26  27  28  29  30  
   31  32  33  34  35  36  37  38  39  40  41  42  43  44  45  46  47  48  49  50  51  52  53  54  
[Printable]
092
ASUS43 KGRB 251110
RWRGRB

NORTH-CENTRAL AND NORTHEAST WISCONSIN REGIONAL WEATHER ROUNDUP
NATIONAL WEATHER SERVICE GREEN BAY WI
600 AM CDT FRI JUL 25 2014

WIZ005-009-010>012-018-019-251200-
NORTH CENTRAL WISCONSIN

CITY           SKY/WX    TMP DP  RH WIND       PRES   REMARKS
IRONWOOD       NOT AVBL
MANITOWISH WTR MOCLDY    60  58  96 S5        29.93S
ARBOR VITAE    LGT RAIN  62  58  87 SW3       29.94F
EAGLE RIVER    MOCLDY    58  55  92 CALM      29.94F
LAND O LAKES   MOCLDY    59  55  86 CALM      29.95F
RHINELANDER    CLOUDY    61  57  87 SW6       29.98R
PHILLIPS       CLOUDY    62  59  91 S5        29.93F
ANTIGO         MOCLDY    57  56  96 SW6       30.00R
TOMAHAWK       LGT RAIN  59  57  94 CALM      29.97S
MERRILL        RAIN      62  59  90 CALM      29.97R
$$

WIZ013-073-251200-
NORTHEAST WISCONSIN

CITY           SKY/WX    TMP DP  RH WIND       PRES   REMARKS
IRON MOUNTAIN  CLOUDY    59  54  83 SE3       29.94F
MARINETTE      CLOUDY    61  48  63 W6        29.96S
OCONTO         MOCLDY    57  51  80 CALM      29.97F
$$

WIZ017-030-035>037-045-251200-
CENTRAL WISCONSIN

CITY           SKY/WX    TMP DP  RH WIND       PRES   REMARKS
MEDFORD        CLOUDY    61  59  92 S9        29.95S
WAUSAU         LGT RAIN  63  59  87 S6        29.96S
MOSINEE        CLOUDY    63  59  88 E8        29.98S
MARSHFIELD     CLOUDY    62  59  90 S7        29.95F
WISC RAPIDS    LGT RAIN  61  58  90 S6        29.99S
STEVENS POINT  CLOUDY    59  56  91 S8        29.99F
WAUPACA        MOCLDY    60  55  83 S3        30.00R
SHAWANO        MOCLDY    62  53  73 SW5       29.99R
CLINTONVILLE   PTCLDY    59  52  77 S6        29.99R
$$

WIZ038-039-048-051-251200-
FOX VALLEY

CITY           SKY/WX    TMP DP  RH WIND       PRES   REMARKS
NWS GREEN BAY  CLEAR     62  54  74 SW6       29.99S
APPLETON       MOCLDY    59  52  77 SW7       30.00F
OSHKOSH        PTCLDY    60  51  72 SW13      30.01R
FOND DU LAC    MOCLDY    60  48  64 SW12      30.03R
$$

WIZ022-050-052-251200-
EAST CENTRAL WISCONSIN

CITY           SKY/WX    TMP DP  RH WIND       PRES   REMARKS
STURGEON BAY   CLOUDY    61  46  59 SW8       29.98S
MANITOWOC      MOCLDY    63  48  58 W7        30.00S
SHEBOYGAN      PTCLDY    57  48  72 SW6       30.00F
$$

LMZ563-521-522-541>543-251200-
LAKESHORE

STATION/POSITION TIME  TEMP    WIND        PRES    VSBY  WAVE
                       AIR SEA DIR/SP/G                  HT/PER
                 (UTC) (F)     (DEG/KT/KT) (MB)    (MI)  (FT/S)
SHEBOYGAN LKSHOR 1100   61     190/  5/  5 1016.1F
KEWAUNEE LKSHORE 1100   62     240/  7/ 11 1015.5F
NORTHPORT PIER   1100   60      CALM  /  1 1014.6S
N MID LAKE BUOY  1100   57 53  190/ 10/ 12 1014.3R         2/ 4
CHAMBERS ISLAND  1100   65     190/  4/ 11 1014.6F
MENOMINEE LKSHOR 1100   64     220/  8/ 13 1015.0F
$$




U.S. Dept. of Commerce
NOAA National Weather Service
1325 East West Highway
Silver Spring, MD 20910
E-mail: w-nws.webmaster@noaa.gov
Page last modified: May 16, 2007
NATIONAL WEATHER SERVICE: for Safety, for Work, for Fun - FOR LIFE